This demonstration page uses our WeatherBlox Daily Observations layout. Learn more.

Left ArrowRight Arrow

39.12711, -84.51439

Hourly Observations for October 23, 2021

Temp ( °F °C ) Dew Point ( °F °C ) Humidity (%) Winds ( mph kmh ) Pressure ( in mb ) Visibility ( mi km ) Precip ( " mm )
12:08 am 00:08 Cloudy 53 11.7 52 11.1 96 96 SW 7 11 30.03 1017 8 13 0.00 0.00
12:30 am 00:30 Cloudy 53 11.7 52 11.1 96 96 SW 6 9 30.02 1017 10 16 0.00 0.00
12:53 am 00:53 Cloudy 53 11.7 51 10.6 93 93 SW 9 15 30.01 1016 10 16 0.00 0.00
1:53 am 01:53 Cloudy 52 11.1 50 10 93 93 undefined N/A 30.01 1016 10 16 N/A
2:53 am 02:53 Cloudy 52 11.1 50 10 93 93 SSW 5 7 30.01 1016 10 16 N/A
3:33 am 03:33 Cloudy 52 11.1 50 10 93 93 SW 7 11 30.03 1017 10 16 N/A
3:53 am 03:53 Cloudy 52 11.1 50 10 93 93 WSW 8 13 30.03 1017 10 16 N/A
4:53 am 04:53 Mostly Cloudy 51 10.6 49 9.4 92 92 VRB 6 9 30.03 1017 10 16 N/A
5:26 am 05:26 Mostly Cloudy 50 10 48 8.9 93 93 SW 6 9 30.05 1018 10 16 N/A
5:53 am 05:53 Mostly Cloudy 49 9.4 47 8.3 93 93 SW 5 7 30.05 1018 10 16 N/A
6:37 am 06:37 Partly Cloudy 49 9.4 47 8.3 93 93 W 7 11 30.06 1018 10 16 N/A
6:53 am 06:53 Mostly Clear 49 9.4 46 7.8 90 90 W 6 9 30.05 1018 10 16 N/A
7:53 am 07:53 Partly Cloudy 45 7.2 45 7.2 100 100 SSW 5 7 30.07 1018 8 13 N/A
8:53 am 08:53 Cloudy 49 9.4 48 8.9 97 97 N N/A 30.09 1019 10 16 N/A
9:53 am 09:53 Partly Cloudy 53 11.7 49 9.4 86 86 SW 5 7 30.10 1019 10 16 N/A
10:53 am 10:53 Partly Cloudy 54 12.2 47 8.3 77 77 SSW 6 9 30.10 1019 10 16 N/A
11:53 am 11:53 Partly Cloudy 56 13.3 47 8.3 72 72 N N/A 30.09 1019 10 16 N/A
12:53 pm 12:53 Mostly Sunny 58 14.4 47 8.3 67 67 VRB 5 7 30.07 1018 10 16 N/A
1:53 pm 13:53 Partly Cloudy 60 15.6 46 7.8 60 60 S 10 17 30.04 1017 10 16 N/A
2:53 pm 14:53 Cloudy 59 15 46 7.8 62 62 SSW 9 15 30.04 1017 10 16 N/A
3:53 pm 15:53 Cloudy 58 14.4 46 7.8 65 65 SSW 5 7 30.03 1017 10 16 N/A
4:53 pm 16:53 Cloudy 58 14.4 49 9.4 72 72 N N/A 30.03 1017 10 16 N/A
5:53 pm 17:53 Cloudy 57 13.9 50 10 78 78 N N/A 30.02 1017 10 16 N/A
6:53 pm 18:53 Partly Cloudy 54 12.2 51 10.6 90 90 N N/A 30.02 1017 10 16 N/A
7:53 pm 19:53 Cloudy 54 12.2 52 11.1 93 93 NE 3 6 30.03 1017 10 16 N/A
8:53 pm 20:53 Cloudy 54 12.2 52 11.1 93 93 N N/A 30.02 1017 10 16 N/A
9:33 pm 21:33 Cloudy with Light Rain 54 12.2 52 11.1 93 93 N N/A 30.04 1017 7 11 0.00 0.00
9:53 pm 21:53 Cloudy with Light Rain 54 12.2 53 11.7 97 97 N N/A 30.04 1017 9 14 0.00 0.00
10:39 pm 22:39 Cloudy 54 12.2 53 11.7 97 97 N N/A 30.04 1017 9 14 0.01 0.25
10:53 pm 22:53 Cloudy with Light Rain 54 12.2 54 12.2 100 100 N N/A 30.05 1018 7 11 0.01 0.25
11:53 pm 23:53 Cloudy 54 12.2 54 12.2 100 100 N N/A 30.04 1017 7 11 0.00 0.00

Powered by AerisWeather